Back to catalog

XIGUANG 1-04

AliveScienceSSO
NORAD 61895·PAYLOAD·🇨🇳 China
This satellite name has not been confirmed by official sources yet.

Launched Nov 11, 2024 from Jiuquan Satellite Launch Center

Loading…

Next Passes (next 24 hours)

TLE

FreshSource: Space-Track

Epoch: Sep 14, 2026, 12:13 UTC

1 61895U 24205B   26257.50953096  .00009251  00000-0  29998-3 0  9998
2 61895  97.4073 335.1206 0010829  80.4273 279.8192 15.32151777102353

Track XIGUANG 1-04 in real time with AllMySat

Download on the App Store